Powrót do katalogu

TRANSIT 2A

AktywnyNawigacjaLEO
NORAD 45·PAYLOAD·🇺🇸 United States

Wystrzelony Jun 22, 1960 z Cape Canaveral Space Force Station

Loading…

Następne Przeloty (najbliższe 24 godziny)

TLE

ŚwieżeSource: Space-Track

Epoka: Sep 14, 2026, 09:06 UTC

1 00045U 60007A   26257.37950718  .00000199  00000-0  75387-4 0  9997
2 00045  66.6927 124.2971 0240848  94.1674 268.6991 14.36022961392852

Śledź TRANSIT 2A w czasie rzeczywistym z AllMySat

Download on the App Store